Overview Statistics Trail Chart Weather Telemetry Raw packets
 

This is the latest recevied weather packets stored in our database for station/object VE3DVC. If no packets are shown the sender has not sent any weather packets the latest 10 day(s).

<< 37 38 39 40 41 42 43 >>
Time Temp. Humidity Pressure Rain* Wind** Luminosity Snow
1787945796 21.67° C 73% 1021.3 hPa 0 mm - - -
1787945075 22.22° C 68% 1021.5 hPa 0 mm - - -
1787944356 22.78° C 64% 1021.5 hPa 0 mm - - -
1787943636 23.33° C 57% 1021.5 hPa 0 mm - - -
1787942916 23.89° C 54% 1021.4 hPa 0 mm - - -
1787942196 23.33° C 55% 1021.4 hPa 0 mm - - -
1787941475 22.78° C 57% 1021.5 hPa 0 mm - - -
1787940756 22.78° C 57% 1021.6 hPa 0 mm - - -
1787940035 23.33° C 59% 1021.5 hPa 0 mm - - -
1787938566 22.78° C 59% 1021.4 hPa 0 mm - - -
1787937846 22.22° C 61% 1021.5 hPa 0 mm - - -
1787937126 22.22° C 63% 1021.5 hPa 0 mm - - -
1787936406 21.67° C 60% 1021.5 hPa 0 mm - - -
1787935686 21.67° C 64% 1021.5 hPa 0 mm - - -
1787934966 21.11° C 65% 1021.6 hPa 0 mm - - -
1787934246 20.56° C 67% 1021.7 hPa 0 mm - - -
1787933526 20.56° C 66% 1021.7 hPa 0 mm - - -
1787932805 20° C 67% 1021.8 hPa 0 mm - - -
1787932086 20° C 74% 1021.7 hPa 0 mm - - -
1787930680 19.44° C 72% 1021.5 hPa 0 mm - - -
1787929627 18.89° C 79% 1021.6 hPa 0 mm - - -
1787928908 18.33° C 78% 1021.6 hPa 0 mm - - -
1787928188 17.78° C 84% 1021.5 hPa 0 mm - - -
1787927467 17.78° C 86% 1021.3 hPa 0 mm - - -
1787926748 17.22° C 89% 1021.2 hPa 0 mm - - -

* Rain latest hour (hover to see other rain measurements)
** Current wind speed in m/s (hover to see current wind gust speed)